This is the latest recevied weather packets stored in our database for station/object WP3OF. If no packets are shown the sender has not sent any weather packets the latest 10 day(s).
| Time | Temp. | Humidity | Pressure | Rain* | Wind** | Luminosity | Snow |
|---|---|---|---|---|---|---|---|
| 1778133975 | 23.89° C | 81% | 1019.4 hPa | 0 mm | - | - | - |
| 1778133671 | 23.89° C | 84% | 1019.3 hPa | 0 mm | - | - | - |
| 1778133366 | 23.89° C | 84% | 1019.7 hPa | 0 mm | - | - | - |
| 1778133062 | 24.44° C | 81% | 1019.5 hPa | 0 mm | - | - | - |
| 1778132759 | 24.44° C | 80% | 1019.6 hPa | 0 mm | - | - | - |
| 1778132456 | 25° C | 77% | 1019.7 hPa | 0 mm | - | - | - |
| 1778132153 | 25° C | 75% | 1019.9 hPa | 0 mm | - | - | - |
| 1778131852 | 25° C | 76% | 1019.6 hPa | 0 mm | - | - | - |
| 1778131549 | 24.44° C | 80% | 1019.7 hPa | 0 mm | - | - | - |
| 1778131246 | 24.44° C | 84% | 1019.7 hPa | 0 mm | - | - | - |
| 1778130944 | 24.44° C | 84% | 1019.8 hPa | 0 mm | - | - | - |
| 1778130640 | 24.44° C | 85% | 1020 hPa | 0 mm | - | - | - |
| 1778130337 | 24.44° C | 86% | 1020 hPa | 0 mm | - | - | - |
| 1778130033 | 24.44° C | 87% | 1020.3 hPa | 0 mm | - | - | - |
| 1778129730 | 24.44° C | 86% | 1020.1 hPa | 0 mm | - | - | - |
| 1778129427 | 24.44° C | 86% | 1020.6 hPa | 0 mm | - | - | - |
| 1778129124 | 24.44° C | 85% | 1020.3 hPa | 0 mm | - | - | - |
| 1778128821 | 24.44° C | 86% | 1020.4 hPa | 0 mm | - | - | - |
| 1778128517 | 25° C | 85% | 1020.4 hPa | 0 mm | - | - | - |
| 1778128214 | 25° C | 85% | 1020.4 hPa | 0 mm | - | - | - |
| 1778127910 | 25° C | 86% | 1020.1 hPa | 0 mm | - | - | - |
| 1778127605 | 25° C | 86% | 1020.3 hPa | 0 mm | - | - | - |
| 1778127303 | 25° C | 86% | 1020.3 hPa | 0 mm | - | - | - |
| 1778126999 | 25° C | 86% | 1020.4 hPa | 0 mm | - | - | - |
| 1778126695 | 25° C | 87% | 1020.4 hPa | 0 mm | - | - | - |
* Rain latest hour (hover to see other rain measurements)
** Current wind speed in m/s (hover to see current wind gust speed)